Regional Weather Roundup
Issued by NWS

Home | Current Version | Previous Version | Text Only | Print | Product List | Glossary On
Versions: 1 2 3 4 5 6 7 8 9 10 11 12 13 14 15 16 17 18 19 20 21 22 23 24 25 26 27 28 29 30 31 32 33 34 35 36 37 38 39 40 41 42 43 44 45 46 47 48 49 50
000
ASUS44 KJAN 041910
RWRMS

MISSISSIPPI HOURLY WEATHER ROUNDUP
NATIONAL WEATHER SERVICE JACKSON MS
100 PM CST WED MAR 04 2015

NOTE: "FAIR: INDICATES FEW OR NO CLOUDS BELOW 12,000 FEET WITH NO
SIGNIFICANT WEATHER AND/OR OBSTRUCTIONS TO VISIBILITY.

MSZ001>002-007>008-010>013-018>021-025>028-034>036-042000-
NORTHWEST MISSISSIPPI

CITY           SKY/WX    TMP DP  RH WIND       PRES   REMARKS
CLARKSDALE     CLOUDY    41  41 100 N25G32    29.95S
CLEVELAND      CLOUDY    46  46 100 N18G26    29.89S
GREENWOOD      PTSUNNY   77  64  64 SW21G29   29.85F
GREENVILLE     CLOUDY    53  50  89 N22G32    29.87R
OLIVE BRANCH   RAIN      37  37 100 N20G25    29.96S FOG     WCI  27
OXFORD         CLOUDY    48  48 100 N12G17    29.90S FOG
TUNICA         RAIN      37  37 100 N22       29.97F VSB 1/2 WCI  27
$$

MSZ003>006-009-014>017-022>024-029>033-037>039-042000-
NORTHEAST MISSISSIPPI

CITY           SKY/WX    TMP DP  RH WIND       PRES   REMARKS
COLUMBUS AFB   MOSUNNY   79  62  56 SW20G30   29.86F
CORINTH        LGT RAIN  54  52  94 N14       29.88S
GOLDN TRIANGLE PTSUNNY   79  64  61 SW17G24   29.87F
STARKVILLE     MOCLDY    77  63  61 SW14G22   29.87F
TUPELO         CLOUDY    72  66  81 CALM      29.83F
$$

MSZ040-058-042000-
CENTRAL MISSISSIPPI

CITY           SKY/WX    TMP DP  RH WIND       PRES   REMARKS
JACKSON INTL   PTSUNNY   80  63  55 SW20      29.89F
JACKSON HAWKNS PTSUNNY   79  64  60 S14G24    29.90F
MERIDIAN KEY   PTSUNNY   77  65  66 S16G24    29.93F
MERIDIAN NAS   PTSUNNY   77  64  64 S14G20    29.93F
VICKSBURG      MOSUNNY   81  64  56 SW14G26   29.88F
$$

MSZ059>079-042000-
SOUTH MISSISSIPPI

CITY           SKY/WX    TMP DP  RH WIND       PRES   REMARKS
BROOKHAVEN     FAIR      79  73  83 S10G22    29.94F
HATTIESBURG    MOSUNNY   78  67  68 S20G30    29.95F
MCCOMB         PTSUNNY   78  64  61 S14G24    29.93F
NATCHEZ        PTSUNNY   79  64  61 SW9       29.91F
PINE BELT      MOSUNNY   79  66  65 S12G20    29.94F
$$

MSZ080>082-042000-
COASTAL MISSISSIPPI

CITY           SKY/WX    TMP DP  RH WIND       PRES   REMARKS
BAY ST LOUIS   PTSUNNY   75  66  73 S13       29.97F
BILOXI         PTSUNNY   70  70 100 S9        29.97F
PASCAGOULA     CLOUDY    76  69  79 S12G28    29.98F
GULFPORT       LGT RAIN  69  67  93 S9        29.97F FOG
$$


USA.gov is the U.S. government's official web portal to all federal, state and local government web resources and services.